Location: Newark
(39.0622°N, 106.5590°E)
Time: 13:29:08
(UTC+00:00)

Courier 1B - Pass Details

Date: 30 January 2020
Orbit: 962 x 1209 km, 28.3° (Epoch: 28 February)

Event Time Altitude Azimuth Distance (km) Brightness Sun altitude
Rises 20:30:04 0° 258° (WSW) 3,798 - -41.2°
Reaches altitude 10° 20:33:00 10° 249° (WSW) 2,883 - -40.7°
Maximum altitude 20:39:09 32° 188° (S) 1,789 - -39.5°
Exits shadow 20:42:15 24° 149° (SSE) 2,159 9.4 -38.9°
Drops below altitude 10° 20:45:37 10° 128° (SE) 3,040 10.5 -38.2°
Sets 20:48:49 0° 119° (ESE) 4,034 11.3 -37.6°
